Starlink 4447

operational
NORAD ID: 53472 Int'l Des: 2022-099 Owner: SPXS Country: US Constellation: starlink
LEOCIRCULARRETROGRADESSO

About Starlink 4447

Description loading...

Live Position

Loading 3D Globe...

Upcoming Passes

Altitude History

Altitude vs Time

uPlot chart will show altitude changes over time

Two-Line Element Set

1 53472U 22099H 25352.60248428 -.00000183 00000-0 -97366-5 0 9994
2 53472 97.6029 110.8338 0003264 74.8425 285.3160 15.01262304183815
Epoch: Dec 18, 2025 • Age: 12 hours

Current Status

Altitude 566.0 km
Velocity 7.58 km/s
Sub-Earth Point 5.16°N, 167.57°E
Launch Date Aug 12, 2022
Age 3.3 years
Type internet

Technical Details

Classification Payload
Mass 300.00 kg
Dry Mass 275.00 kg
Total Mass 300.00 kg
Length 0.20 m
Diameter 2.80 m
Span 9.00 m
Shape Box + pan
Manufacturer SPXS
Bus Type Starlink
Phase Status In Orbit
Owner/State SPXS/US

Large Constellations

Loading constellations...